GW4990 Weather Reports


time (UTC)temp
C
wind
direction
speed
KPH
gust
KPH
rain 1hr
cm
rain 24hr
cm
rain mn
cm
humidity
%
barometer
mb
20260505122306 31 138 0.0 0.0 0.00 0.00 0.00 80 1013.0
20260505121804 31 92 0.0 0.0 0.00 0.00 0.00 80 1013.0
20260505121304 31 131 0.0 0.0 0.00 0.00 0.00 79 1013.0
20260505120804 31 209 0.0 0.0 0.00 0.00 0.00 78 1013.0
20260505120306 31 180 0.0 0.0 0.00 0.00 0.00 78 1013.0
20260505115805 31 68 0.0 0.0 0.00 0.00 0.00 77 1013.0
20260505115306 31 143 0.0 0.0 0.00 0.00 0.00 77 1013.0
20260505114806 31 150 0.0 0.0 0.00 0.00 0.00 77 1013.0
20260505114305 31 69 0.0 0.0 0.00 0.00 0.00 76 1013.0
20260505113805 31 139 0.0 0.0 0.00 0.00 0.00 76 1013.0
20260505113305 31 171 0.0 0.0 0.00 0.00 0.00 76 1013.0
20260505112806 32 180 0.0 0.0 0.00 0.00 0.00 74 1013.0
20260505112306 31 205 0.0 0.0 0.00 0.00 0.00 74 1013.0
20260505111807 32 112 0.0 0.0 0.00 0.00 0.00 74 1013.0
20260505111305 32 203 0.0 0.0 0.00 0.00 0.00 73 1013.0
20260505110805 32 135 0.0 0.0 0.00 0.00 0.00 73 1013.0
20260505110305 32 148 0.0 0.0 0.00 0.00 0.00 73 1013.0
20260505101805 32 309 0.0 0.0 0.00 0.00 0.00 73 1013.0
20260505101304 32 98 0.0 0.0 0.00 0.00 0.00 73 1013.0
20260505100805 32 104 0.0 0.0 0.00 0.00 0.00 74 1013.0
20260505100305 32 108 0.0 0.0 0.00 0.00 0.00 72 1014.0
20260505095804 32 53 0.0 0.0 0.00 0.00 0.00 72 1014.0
20260505095305 32 163 0.0 0.0 0.00 0.00 0.00 71 1014.0
20260505094805 32 56 0.0 0.0 0.00 0.00 0.00 71 1014.0
20260505094306 33 86 0.0 0.0 0.00 0.00 0.00 70 1014.0
20260505093804 34 191 0.0 0.0 0.00 0.00 0.00 69 1014.0
20260505093305 33 199 0.0 0.0 0.00 0.00 0.00 69 1014.0
20260505092807 33 131 0.0 0.0 0.00 0.00 0.00 70 1014.0
20260505092305 33 90 0.0 0.0 0.00 0.00 0.00 69 1014.0
20260505091804 33 152 0.0 0.0 0.00 0.00 0.00 69 1014.0
20260505091306 33 101 0.0 0.0 0.00 0.00 0.00 69 1014.0
20260505090804 33 151 0.0 0.0 0.00 0.00 0.00 69 1014.0
20260505090305 34 204 0.0 0.0 0.00 0.00 0.00 67 1014.0
20260505085804 33 105 0.0 0.0 0.00 0.00 0.00 69 1014.0
20260505085307 33 92 0.0 0.0 0.00 0.00 0.00 70 1014.0
20260505084805 33 93 0.0 0.0 0.00 0.00 0.00 70 1014.0
20260505084304 33 71 0.0 0.0 0.00 0.00 0.00 68 1014.0
20260505083805 33 35 0.0 0.0 0.00 0.00 0.00 68 1014.0
20260505083305 33 121 0.0 0.0 0.00 0.00 0.00 68 1014.0
20260505082804 34 107 0.0 0.0 0.00 0.00 0.00 67 1014.0
20260505082305 34 133 0.0 0.0 0.00 0.00 0.00 67 1014.0
20260505081805 34 97 0.0 0.0 0.00 0.00 0.00 66 1014.0
20260505081304 34 307 0.0 0.0 0.00 0.00 0.00 65 1014.0
20260505080805 34 108 0.0 0.0 0.00 0.00 0.00 66 1015.0
20260505080304 34 103 0.0 0.0 0.00 0.00 0.00 64 1014.0
20260505075806 35 61 0.0 0.0 0.00 0.00 0.00 63 1014.0
20260505075304 35 91 0.0 0.0 0.00 0.00 0.00 63 1014.0
20260505074804 35 162 0.0 0.0 0.00 0.00 0.00 63 1015.0
20260505074304 34 142 0.0 0.0 0.00 0.00 0.00 65 1014.0
20260505073805 34 83 0.0 0.0 0.00 0.00 0.00 66 1015.0
20260505073306 35 148 0.0 0.0 0.00 0.00 0.00 63 1015.0
20260505072806 35 129 0.0 0.0 0.00 0.00 0.00 64 1015.0
20260505072305 35 82 0.0 0.0 0.00 0.00 0.00 63 1015.0
20260505071804 35 80 0.0 0.0 0.00 0.00 0.00 64 1015.0
20260505071304 35 187 0.0 0.0 0.00 0.00 0.00 65 1015.0
20260505070804 35 186 0.0 0.0 0.00 0.00 0.00 64 1015.0
20260505070304 35 113 0.0 0.0 0.00 0.00 0.00 63 1015.0
20260505065807 35 98 0.0 0.0 0.00 0.00 0.00 65 1015.0
20260505065304 35 55 0.0 0.0 0.00 0.00 0.00 63 1015.0
20260505064804 35 155 0.0 0.0 0.00 0.00 0.00 63 1016.0
20260505064305 35 107 0.0 0.0 0.00 0.00 0.00 60 1016.0
20260505063805 35 109 0.0 0.0 0.00 0.00 0.00 60 1016.0
20260505063304 35 240 0.0 0.0 0.00 0.00 0.00 61 1016.0
20260505062804 34 250 0.0 0.0 0.00 0.00 0.00 62 1016.0
20260505062304 34 144 0.0 0.0 0.00 0.00 0.00 62 1016.0
20260505061804 34 75 0.0 0.0 0.00 0.00 0.00 62 1016.0
20260505061305 34 142 0.0 0.0 0.00 0.00 0.00 62 1016.0
20260505060804 33 274 0.0 0.0 0.00 0.00 0.00 63 1016.0
20260505060304 35 115 0.0 0.0 0.00 0.00 0.00 61 1016.0
20260505055804 34 144 0.0 0.0 0.00 0.00 0.00 62 1016.0
20260505055305 34 157 0.0 0.0 0.00 0.00 0.00 62 1016.0
20260505054805 34 186 0.0 0.0 0.00 0.00 0.00 62 1016.0
20260505054304 34 92 0.0 0.0 0.00 0.00 0.00 62 1016.0
20260505053804 34 187 0.0 0.0 0.00 0.00 0.00 61 1016.0
20260505053304 35 191 0.0 0.0 0.00 0.00 0.00 60 1016.0
20260505052804 34 126 0.0 0.0 0.00 0.00 0.00 62 1016.0
20260505052304 34 47 0.0 0.0 0.00 0.00 0.00 61 1016.0
20260505051804 33 62 0.0 0.0 0.00 0.00 0.00 62 1016.0
20260505051304 34 305 0.0 0.0 0.00 0.00 0.00 62 1016.0
20260505050804 33 234 0.0 0.0 0.00 0.00 0.00 64 1016.0
20260505050304 33 49 0.0 0.0 0.00 0.00 0.00 62 1016.0
20260505041304 31 57 0.0 0.0 0.00 0.00 0.00 68 1017.0
20260505040804 31 346 0.0 0.0 0.00 0.00 0.00 70 1016.0
20260505040304 31 188 0.0 0.0 0.00 0.00 0.00 68 1017.0
20260505035804 31 219 0.0 0.0 0.00 0.00 0.00 70 1016.0
20260505035307 31 245 0.0 0.0 0.00 0.00 0.00 72 1017.0
20260505034804 31 170 0.0 0.0 0.00 0.00 0.00 71 1016.0
20260505034305 30 259 0.0 0.0 0.00 0.00 0.00 72 1016.0
20260505033804 30 229 0.0 0.0 0.00 0.00 0.00 72 1016.0
20260505033305 31 320 0.0 0.0 0.00 0.00 0.00 72 1016.0
20260505032804 31 10 0.0 0.0 0.00 0.00 0.00 72 1016.0
20260505032305 30 256 0.0 0.0 0.00 0.00 0.00 73 1016.0
20260505031804 30 232 0.0 0.0 0.00 0.00 0.00 74 1016.0
20260505031304 30 249 0.0 0.0 0.00 0.00 0.00 74 1016.0
20260505030804 30 191 0.0 0.0 0.00 0.00 0.00 73 1016.0
20260505030304 30 281 0.0 0.0 0.00 0.00 0.00 75 1016.0
20260505025804 30 351 0.0 0.0 0.00 0.00 0.00 73 1016.0
20260505025305 30 294 0.0 0.0 0.00 0.00 0.00 73 1016.0
20260505024804 30 282 0.0 0.0 0.00 0.00 0.00 72 1016.0
20260505024304 30 7 0.0 0.0 0.00 0.00 0.00 72 1016.0
20260505023804 30 338 0.0 0.0 0.00 0.00 0.00 73 1016.0
20260505023304 30 44 0.0 0.0 0.00 0.00 0.00 72 1016.0
20260505022804 30 21 0.0 0.0 0.00 0.00 0.00 71 1016.0
20260505022304 30 266 0.0 0.0 0.00 0.00 0.00 72 1016.0
20260505021804 30 20 0.0 0.0 0.00 0.00 0.00 72 1016.0
20260505021305 31 243 0.0 0.0 0.00 0.00 0.00 70 1016.0
20260505020804 31 70 0.0 0.0 0.00 0.00 0.00 68 1016.0
20260505020304 31 90 0.0 0.0 0.00 0.00 0.00 70 1015.0
20260505015804 30 236 0.0 0.0 0.00 0.00 0.00 71 1015.0
20260505015304 30 236 0.0 0.0 0.00 0.00 0.00 71 1015.0
20260505014804 30 232 0.0 0.0 0.00 0.00 0.00 72 1015.0
20260505014304 30 3 0.0 0.0 0.00 0.00 0.00 72 1015.0
20260505013804 30 134 0.0 0.0 0.00 0.00 0.00 72 1015.0
20260505013304 30 82 0.0 0.0 0.00 0.00 0.00 72 1015.0
20260505012804 29 162 0.0 0.0 0.00 0.00 0.00 73 1015.0
20260505012304 28 96 0.0 0.0 0.00 0.00 0.00 74 1015.0
20260505011805 28 77 0.0 0.0 0.00 0.00 0.00 75 1015.0
20260505011304 28 82 0.0 0.0 0.00 0.00 0.00 75 1015.0
20260505010810 28 63 0.0 0.0 0.00 0.00 0.00 76 1015.0
20260505010305 28 321 0.0 0.0 0.00 0.00 0.00 77 1015.0
20260505005804 28 336 0.0 0.0 0.00 0.00 0.00 77 1015.0
20260505005304 28 256 0.0 0.0 0.00 0.00 0.00 77 1015.0
20260505004804 28 211 0.0 0.0 0.00 0.00 0.00 77 1015.0
20260505003814 28 285 0.0 0.0 0.00 0.00 0.00 77 1014.0
20260505003306 28 323 0.0 0.0 0.00 0.00 0.00 77 1015.0
20260505002805 28 40 0.0 0.0 0.00 0.00 0.00 76 1015.0
20260505002304 28 257 0.0 0.0 0.00 0.00 0.00 76 1014.0
20260505001804 28 146 0.0 0.0 0.00 0.00 0.00 76 1014.0
20260505001304 28 182 0.0 0.0 0.00 0.00 0.00 77 1014.0
20260504230804 28 217 0.0 0.0 0.00 0.00 0.00 77 1015.0
20260504230304 28 237 0.0 0.0 0.00 0.00 0.00 76 1014.0
20260504225804 28 297 0.0 0.0 0.00 0.00 0.00 76 1014.0
20260504225305 28 254 0.0 0.0 0.00 0.00 0.00 76 1014.0
20260504224804 28 117 0.0 0.0 0.00 0.00 0.00 77 1014.0
20260504224304 28 202 0.0 0.0 0.00 0.00 0.00 77 1014.0
20260504223332 28 241 0.0 0.0 0.00 0.00 0.00 78 1014.0
20260504222804 28 262 0.0 0.0 0.00 0.00 0.00 77 1015.0
20260504222305 28 207 0.0 0.0 0.00 0.00 0.00 78 1015.0
20260504221804 27 212 0.0 0.0 0.00 0.00 0.00 78 1015.0
20260504221304 27 220 0.0 0.0 0.00 0.00 0.00 79 1015.0
20260504220804 27 200 0.0 0.0 0.00 0.00 0.00 79 1014.0
20260504220305 27 275 0.0 0.0 0.00 0.00 0.00 79 1015.0
20260504215804 27 232 0.0 0.0 0.00 0.00 0.00 79 1015.0
20260504215305 27 292 0.0 0.0 0.00 0.00 0.00 80 1015.0
20260504214805 27 238 0.0 0.0 0.00 0.00 0.00 80 1015.0
20260504214304 27 316 0.0 0.0 0.00 0.00 0.00 80 1015.0
20260504213804 27 288 0.0 0.0 0.00 0.00 0.00 80 1015.0
20260504213305 27 200 0.0 0.0 0.00 0.00 0.00 80 1015.0
20260504212805 27 272 0.0 0.0 0.00 0.00 0.00 80 1015.0
20260504212304 27 280 0.0 0.0 0.00 0.00 0.00 80 1015.0
20260504211805 27 232 0.0 0.0 0.00 0.00 0.00 81 1015.0
20260504211304 27 176 0.0 0.0 0.00 0.00 0.00 82 1015.0
20260504210804 27 254 0.0 0.0 0.00 0.00 0.00 82 1016.0
20260504210304 27 223 0.0 0.0 0.00 0.00 0.00 82 1016.0
20260504205805 27 230 0.0 0.0 0.00 0.00 0.00 83 1016.0
20260504205304 27 147 0.0 0.0 0.00 0.00 0.00 83 1016.0
20260504204804 28 226 0.0 0.0 0.00 0.00 0.00 82 1016.0
20260504204304 28 328 0.0 0.0 0.00 0.00 0.00 82 1015.0
20260504203805 28 278 0.0 0.0 0.00 0.00 0.00 81 1015.0
20260504203304 28 230 0.0 0.0 0.00 0.00 0.00 80 1015.0
20260504202805 28 280 0.0 0.0 0.00 0.00 0.00 81 1015.0
20260504202305 28 201 0.0 0.0 0.00 0.00 0.00 80 1015.0
20260504201804 28 197 0.0 0.0 0.00 0.00 0.00 80 1015.0
20260504201304 28 113 0.0 0.0 0.00 0.00 0.00 80 1014.0
20260504200804 28 138 0.0 0.0 0.00 0.00 0.00 80 1015.0
20260504200305 28 179 0.0 0.0 0.00 0.00 0.00 80 1015.0
20260504195804 28 191 0.0 0.0 0.00 0.00 0.00 80 1015.0
20260504195304 28 161 0.0 0.0 0.00 0.00 0.00 80 1015.0
20260504194804 28 243 0.0 0.0 0.00 0.00 0.00 80 1015.0
20260504194304 28 100 0.0 0.0 0.00 0.00 0.00 80 1015.0
20260504193804 28 120 0.0 0.0 0.00 0.00 0.00 80 1015.0
20260504193304 28 158 0.0 0.0 0.00 0.00 0.00 80 1015.0
20260504192804 28 186 0.0 0.0 0.00 0.00 0.00 80 1015.0
20260504192305 28 170 0.0 0.0 0.00 0.00 0.00 80 1015.0
20260504191804 28 203 0.0 0.0 0.00 0.00 0.00 80 1015.0
20260504191304 28 181 0.0 0.0 0.00 0.00 0.00 79 1015.0
20260504190804 28 121 0.0 0.0 0.00 0.00 0.00 79 1015.0
20260504190304 28 182 0.0 0.0 0.00 0.00 0.00 79 1015.0
20260504185805 28 194 0.0 0.0 0.00 0.00 0.00 79 1015.0
20260504185305 28 126 0.0 0.0 0.00 0.00 0.00 79 1015.0
20260504184804 28 151 0.0 0.0 0.00 0.00 0.00 79 1015.0
20260504184305 28 189 0.0 0.0 0.00 0.00 0.00 79 1015.0
20260504183804 28 190 0.0 0.0 0.00 0.00 0.00 78 1015.0
20260504183304 28 207 0.0 0.0 0.00 0.00 0.00 79 1015.0
20260504182814 28 261 0.0 0.0 0.00 0.00 0.00 79 1015.0
20260504182306 28 221 0.0 0.0 0.00 0.00 0.00 79 1015.0
20260504181806 29 275 0.0 0.0 0.00 0.00 0.00 79 1015.0
20260504181305 29 261 0.0 0.0 0.00 0.00 0.00 79 1015.0
20260504180805 29 200 0.0 0.0 0.00 0.00 0.00 80 1015.0
20260504180304 29 205 0.0 0.0 0.00 0.00 0.00 80 1015.0
20260504175805 29 208 0.0 0.0 0.00 0.00 0.00 80 1015.0
20260504175304 29 233 0.0 0.0 0.00 0.00 0.00 80 1015.0
20260504174804 29 169 0.0 0.0 0.00 0.00 0.00 80 1015.0
20260504174305 30 165 0.0 0.0 0.00 0.00 0.00 79 1016.0
20260504173805 30 207 0.0 0.0 0.00 0.00 0.00 79 1016.0
20260504173304 30 170 0.0 0.0 0.00 0.00 0.00 79 1016.0
20260504172806 30 188 0.0 0.0 0.00 0.00 0.00 79 1016.0
20260504172305 30 219 0.0 0.0 0.00 0.00 0.00 78 1016.0
20260504171804 30 228 0.0 0.0 0.00 0.00 0.00 78 1016.0
20260504171304 30 196 0.0 0.0 0.00 0.00 0.00 79 1016.0
20260504170804 30 250 0.0 0.0 0.00 0.00 0.00 80 1016.0
20260504170304 30 194 0.0 0.0 0.00 0.00 0.00 81 1016.0
20260504160304 30 216 0.0 0.0 0.00 0.00 0.00 83 1015.0
20260504150804 30 139 0.0 0.0 0.00 0.00 0.00 83 1015.0
20260504150304 30 145 0.0 0.0 0.00 0.00 0.00 83 1015.0
20260504141307 30 80 0.0 0.0 0.00 0.00 0.00 82 1013.0
20260504140805 30 126 0.0 0.0 0.00 0.00 0.00 82 1014.0
20260504140304 30 117 0.0 0.0 0.00 0.00 0.00 81 1014.0
20260504130805 30 122 0.0 0.0 0.00 0.00 0.00 82 1012.0
20260504130305 30 172 0.0 0.0 0.00 0.00 0.00 82 1012.0